User: anonymous   Login
Location: Unspecified
(0.0000°N, 0.0000°E)
Time: 06:16:04
(UTC+00:00)
Language:

SO-50 - Orbit

View from above orbital plane
View from above orbital plane
View from above satellite
View from above satellite

Ground track
Ground track

The orbit data is extracted from the following two-line orbital elements,

1 27607U 02058C   17119.87556746 +.00000098 +00000-0 +34727-4 0  9998
2 27607 064.5551 273.1903 0031761 120.8897 239.5335 14.75316137771988
Epoch (UTC): 29 April 2017 21:00:49
Eccentricity: 0.0031761
inclination: 64.5551°
perigee height: 622 km
apogee height: 666 km
right ascension of ascending node: 273.1903°
argument of perigee: 120.8897°
revolutions per day: 14.75316137
mean anomaly at epoch: 239.5335°
orbit number at epoch: 77198

The dashed part of the orbit path shows where the satellite is in the earth's shadow,  

DLR